Hilo, HI

8:10 PM HST on March 26, 2017 (GMT -1000)
Hilo International

Weather History for PHTO - February, 2013

Change the Weather History Date:

Saturday, February 16, 2013

  Actual Average Record
Temperature  
Mean Temperature 73 °F 71 °F  
Max Temperature 79 °F 79 °F 90 °F (1986)
Min Temperature 66 °F 63 °F 57 °F (1958)
Degree Days  
Heating Degree Days 0 0  
Month to date heating degree days 0 0  
Since 1 July heating degree days 0 0  
Cooling Degree Days 8 6  
Month to date cooling degree days 103 96  
Year to date cooling degree days 308 294  
Growing Degree Days 20 (Base 50)    
Moisture  
Dew Point 62 °F    
Average Humidity 73    
Maximum Humidity 87    
Minimum Humidity 58    
Precipitation  
Precipitation 0.05 in 0.35 in 5.83 in (1960)
Month to date precipitation 7.28 5.38  
Year to date precipitation 15.66 14.64  
Snow  
Snow 0.00 in - - ()
Month to date snowfall 0.0  
Since 1 July snowfall 0.0  
Snow Depth 0.00 in    
Sea Level Pressure  
Sea Level Pressure 30.12 in    
Wind  
Wind Speed 10 mph (ENE)    
Max Wind Speed 21 mph    
Max Gust Speed 27 mph    
Visibility 10 miles    
Events Rain    
T = Trace of Precipitation, MM = Missing Value Source: NWS Daily Summary

Daily Weather History Graph

Daily Weather History Graph

Search for Another Location

Airport or City:

Trip Planner

Search our weather history database for the weather conditions in past years. The results will help you decide how hot, cold, wet, or windy it might be!

Date:

Astronomy

Feb. 16, 2013 Rise Set
Actual Time 6:48 AM HST 6:20 PM HST
Civil Twilight 6:25 AM HST 6:42 PM HST
Nautical Twilight 5:59 AM HST 7:08 PM HST
Astronomical Twilight 5:34 AM HST 7:34 PM HST
Moon 11:07 AM HST (2/16) No Moon Set
Length of Visible Light 12h 17m
Length of Day
11h 32m
Waxing Crescent, 41% of the Moon is Illuminated
Feb 16
Waxing Crescent
Feb 17
First Quarter
Feb 25
Full
Mar 4
Last Quarter
Mar 11
New

Hourly Weather History & Observations

Time (HST) Temp. Dew Point Humidity Pressure Visibility Wind Dir Wind Speed Gust Speed Precip Events Conditions
12:16 AM 66.0 °F 63.0 °F 90% 30.13 in 10.0 mi SSW 4.6 mph - N/A   Overcast
12:53 AM 66.9 °F 63.0 °F 87% 30.12 in 10.0 mi SW 3.5 mph - N/A   Overcast
1:01 AM 66.0 °F 63.0 °F 90% 30.12 in 10.0 mi WSW 3.5 mph - N/A   Overcast
1:26 AM 66.9 °F 64.0 °F 90% 30.11 in 10.0 mi Calm Calm - N/A   Mostly Cloudy
1:53 AM 69.1 °F 64.0 °F 84% 30.10 in 10.0 mi East 11.5 mph - N/A   Mostly Cloudy
2:53 AM 69.1 °F 63.0 °F 81% 30.09 in 10.0 mi East 10.4 mph - N/A   Mostly Cloudy
3:53 AM 69.1 °F 63.0 °F 81% 30.09 in 10.0 mi ENE 15.0 mph 25.3 mph 0.00 in Rain Light Rain
4:53 AM 69.1 °F 59.0 °F 70% 30.10 in 10.0 mi ENE 12.7 mph 23.0 mph 0.00 in   Overcast
5:53 AM 69.1 °F 62.1 °F 78% 30.11 in 10.0 mi East 4.6 mph - 0.00 in   Overcast
6:53 AM 69.1 °F 62.1 °F 78% 30.12 in 10.0 mi East 16.1 mph - 0.00 in   Overcast
7:53 AM 71.1 °F 61.0 °F 70% 30.14 in 10.0 mi ENE 15.0 mph - N/A   Scattered Clouds
8:53 AM 73.0 °F 62.1 °F 68% 30.16 in 10.0 mi East 12.7 mph - 0.00 in   Scattered Clouds
9:53 AM 75.9 °F 63.0 °F 64% 30.16 in 10.0 mi NE 9.2 mph - 0.00 in   Mostly Cloudy
10:53 AM 77.0 °F 62.1 °F 60% 30.15 in 10.0 mi ENE 11.5 mph - N/A   Mostly Cloudy
11:53 AM 77.0 °F 62.1 °F 60% 30.13 in 10.0 mi ENE 15.0 mph 20.7 mph 0.00 in   Scattered Clouds
12:53 PM 75.9 °F 62.1 °F 62% 30.11 in 10.0 mi ENE 10.4 mph - N/A   Mostly Cloudy
1:53 PM 78.1 °F 62.1 °F 58% 30.09 in 10.0 mi NE 12.7 mph - 0.00 in   Scattered Clouds
2:53 PM 75.9 °F 63.0 °F 64% 30.08 in 10.0 mi North 11.5 mph - N/A   Scattered Clouds
3:53 PM 75.0 °F 60.1 °F 60% 30.08 in 10.0 mi ENE 12.7 mph - N/A   Mostly Cloudy
4:53 PM 73.0 °F 59.0 °F 61% 30.10 in 10.0 mi ENE 13.8 mph - 0.00 in   Scattered Clouds
5:53 PM 69.1 °F 61.0 °F 75% 30.12 in 10.0 mi East 15.0 mph 23.0 mph N/A   Overcast
6:53 PM 66.0 °F 61.0 °F 84% 30.13 in 10.0 mi WSW 8.1 mph - 0.00 in   Overcast
7:53 PM 66.0 °F 61.0 °F 84% 30.14 in 10.0 mi West 4.6 mph - N/A   Mostly Cloudy
8:53 PM 66.0 °F 62.1 °F 87% 30.16 in 10.0 mi WSW 5.8 mph - 0.05 in   Overcast
9:53 PM 68.0 °F 62.1 °F 81% 30.16 in 10.0 mi Variable 3.5 mph - 0.00 in   Overcast
10:53 PM 66.9 °F 62.1 °F 84% 30.17 in 10.0 mi WSW 3.5 mph - N/A   Mostly Cloudy
11:53 PM 66.0 °F 62.1 °F 87% 30.16 in 10.0 mi Variable 4.6 mph - N/A   Overcast